Regional Weather Roundup
Issued by NWS Charleston, SC

Current Version | Previous Version | Graphics & Text | Print | Product List | Glossary On
Versions: 1 2 3 4 5 6 7 8 9 10 11 12 13 14 15 16 17 18 19 20 21 22 23 24 25 26 27 28 29 30 31 32 33 34 35 36 37 38 39 40 41 42 43 44 45 46 47 48 49 50
000
ASUS42 KCHS 251712
RWRCHS

Regional Weather Roundup
National Weather Service Charleston SC
100 PM EDT FRI MAY 25 2018

NOTE: "fair" indicates few or no clouds below 12,000 feet with no
significant weather and/or obstructions to visibility.

Not all stations are quality controlled. Use data with caution,
especially dewpoint observations.

SCZ027-030-031-034>040-042>050-251800-
...Southeast South Carolina...

CITY           SKY/WX    TMP DP  RH WIND       PRES   REMARKS
N Charleston   PTSUNNY   83  67  58 S15       30.07F
Waterfront Prk   N/A     79  74  85 SE12      29.94F
Mount Pleasant FAIR      81  72  74 SE9       30.08F
Johns Island   PTSUNNY   81  73  78 E9        30.08F
Pinopolis        N/A     82  72  69 VRB2      30.02F
Moncks Corner  LGT RAIN  73  70  88 CALM      30.08S
Summerville    CLOUDY    73  72  94 CALM      30.09F
Beaufort MCAS  FAIR      85  74  69 S7        30.06F HX  92
Beaufort Arpt  FAIR      81  70  69 S8        30.06F
Hilton Head Is PTSUNNY   81  73  78 SE6       30.08F
Walterboro     CLOUDY    77  72  83 NE3       30.08F
Allendale      PTSUNNY   82  70  65 SE8       30.05F

...Southern Midlands and Pee Dee...

CITY           SKY/WX    TMP DP  RH WIND       PRES   REMARKS
Georgetown     FAIR      79  77  94 E10       30.10F
Kingstree      CLOUDY    81  68  65 E6        30.08F
Orangeburg     PTSUNNY   82  69  64 E7        30.07F
Barnwell       PTSUNNY   81  70  69 SE8       30.06F
Aiken          CLOUDY    77  72  83 SE8       30.10F
Manning        PTSUNNY   77  66  69 CALM      30.07F
Columbia       CLOUDY    79  75  87 E6        30.06F
Sumter         CLOUDY    83  70  65 E6        30.05F
Florence       PTSUNNY   84  68  58 S8        30.07F
Myrtle Beach   FAIR      81  67  62 S10       30.10F
N Myrtle Beach FAIR      80  71  74 S9        30.08F

$$

GAZ063-065-086>088-099>101-113>116-118-119-134>141-150-251800-
...Southeast Georgia...

CITY           SKY/WX    TMP DP  RH WIND       PRES   REMARKS
Savannah Arpt  PTSUNNY   85  70  60 S8        30.06F
Hunter AAF     FAIR      82  70  66 SE10      30.04F
Fort Stewart   PTSUNNY   84  71  64 SE12      30.03F
Statesboro     PTSUNNY   82  71  70 S6        30.05F
Sylvania       PTSUNNY   80  73  80 E7        30.07S
Claxton        FAIR      84  71  65 CALM      30.05F

...CSRA, Central and far Southeast Georgia...

CITY           SKY/WX    TMP DP  RH WIND       PRES   REMARKS
Thomson        CLOUDY    77  71  81 CALM      30.10F
Augusta-Bush   LGT RAIN  76  74  93 VRB7      30.04F FOG
Augusta-Daniel LGT RAIN  79  72  79 SE7       30.06F
Swainsboro     FAIR      82  72  69 S9        30.05F
Vidalia        PTSUNNY   82  68  61 S8        30.04F
Eastman        PTSUNNY   82  64  55 S7        30.07F
Hazlehurst       N/A     84  68  58 CALM      30.03F
Alma           LGT RAIN  82  74  76 S6        30.04F
Waycross       PTSUNNY   84  72  66 SE8       30.03F HX  90
Jesup          FAIR      87  68  52 CALM      30.04F HX  90
Baxley         PTSUNNY   81  73  78 S6        30.03F
Brunswick      FAIR      82  70  65 SE9       30.06F
Saint Simons   FAIR      82  75  79 SE14      30.05F

$$

SCZ027-028-034-036>038-045-046-048>050-GAZ119-141-251800-
...Lake and Supplemental Coastal Observations...

STATION/POSITION TIME  TEMP    WIND        PRES    WAVE   SWELL
                       AIR SEA DIR/SP/G            HT/PER HT/PER/DIR
                 (UTC) (F)     (DEG/KT/KT) (MB)    (FT/S) (FT/S/D)
Winyah Bay       1545   79     120/  8     1020.0
Lake Murray      1620   75      90/  5/  6 1017.9F
ACE Basin NERRS  1545   82     130/  3     1019.0
Fort Pulaski     1648   81 79  150/  7/ 10 1018.6F
Sapelo Island    1600   83     130/  8     1018.0

$$

ANZ835-935-AMZ111-154-330-350-352-354-370-450-454-472-251800-
...C-MAN and Buoy Observations...

STATION/POSITION TIME  TEMP    WIND        PRES    WAVE   SWELL
                       AIR SEA DIR/SP/G            HT/PER HT/PER/DIR
                 (UTC) (F)     (DEG/KT/KT) (MB)    (FT/S) (FT/S/D)
Buoy 41004       1650      77  110/  8/ 10 1019.0F   3/ 8   2/130/ 8
Buoy 41008       1650   77 78  120/ 10/ 10 1018.0F   2/ 8   2/120/ 8
Folly Beach CMAN 1600   77     110/ 11/ 12 1019.8F
Capers Nearshore 1608   77 78  120/  8/ 12 1020.1F
Fripp Nearshore  1608   78 79  140/  8/ 12 1018.5F


STATION/POSITION TIME  TEMP    WIND        PRES    WAVE   SWELL
                       AIR SEA DIR/SP/G            HT/PER HT/PER/DIR
                 (UTC) (F)     (DEG/KT/KT) (MB)    (FT/S) (FT/S/D)
5E St. Marys GA  1630      78                N/A     2/ 8
Frying Pan Buoy  1650   77 77  170/  6/  8 1019.1F   2/ 8   2/140/ 8
Buoy 41025       1650   77 78  160/ 12/ 14 1020.1F   2/ 9   2/130/ 9
Cape Lookout NC  1600          120/  4/  5 1020.4F
Buoy 41002       1650      79  170/  6/  8 1019.7F   3/ 8   3/120/ 8
Buoy 41010       1650   78 79  130/ 14/ 16 1018.9F   4/ 9   3/120/ 9
St Augustine FL  1700   77 78  110/  9/ 11 1018.1F


$$




USA.gov is the U.S. government's official web portal to all federal, state and local government web resources and services.